Location: *
(43.0167°S, 179.9000°E)
Time: 12:43:19
(UTC+00:00)

SL-19 R/B - Pass Details

Date: 12 August 2024
Orbit: 795 x 1008 km, 99.6° (Epoch: 12 September)

Event Time Altitude Azimuth Distance (km) Brightness Sun altitude
Rises 16:59:12 0° 9° (N) 3,306 7.4 -22.0°
Reaches altitude 10° 17:01:32 10° 6° (N) 2,375 6.6 -21.5°
Maximum altitude 17:06:42 66° 283° (WNW) 879 4.0 -20.6°
Drops below altitude 10° 17:12:00 10° 200° (SSW) 2,421 6.4 -19.6°
Sets 17:14:24 0° 197° (SSW) 3,376 7.1 -19.2°
